| time (UTC) | temp F | wind direction | speed knots | gust knots | rain 1hr in | rain 24hr in | rain mn in | humidity % | barometer mb |
| 20260506235504 | 57 | 11 | 0.9 | 2.6 | 0.00 | 0.57 | 0.00 | 81 | 1010.9 |
| 20260506235004 | 57 | 6 | 0.9 | 2.6 | 0.00 | 0.57 | 0.00 | 81 | 1011.0 |
| 20260506233504 | 57 | 355 | 0.9 | 2.6 | 0.00 | 0.57 | 0.00 | 81 | 1011.0 |
| 20260506231004 | 57 | 355 | 0.9 | 1.7 | 0.00 | 0.57 | 0.00 | 81 | 1010.6 |
| 20260506230004 | 57 | 355 | 0.9 | 2.6 | 0.00 | 0.57 | 0.00 | 80 | 1010.4 |
| 20260506225503 | 57 | 0 | 0.9 | 2.6 | 0.00 | 0.57 | 0.00 | 80 | 1010.4 |
| 20260506225004 | 57 | 0 | 0.9 | 2.6 | 0.00 | 0.57 | 0.00 | 80 | 1010.5 |
| 20260506224503 | 57 | 0 | 0.9 | 2.6 | 0.00 | 0.57 | 0.00 | 80 | 1010.4 |
| 20260506223504 | 57 | 9 | 0.9 | 2.6 | 0.00 | 0.57 | 0.00 | 80 | 1010.5 |
| 20260506222503 | 57 | 12 | 0.9 | 1.7 | 0.00 | 0.57 | 0.00 | 80 | 1010.6 |
| 20260506215504 | 58 | 13 | 0.9 | 1.7 | 0.00 | 0.57 | 0.57 | 77 | 1010.5 |
| 20260506214504 | 58 | 13 | 0.9 | 1.7 | 0.00 | 0.57 | 0.57 | 76 | 1010.3 |
| 20260506213504 | 59 | 19 | 0.9 | 2.6 | 0.00 | 0.57 | 0.57 | 75 | 1010.4 |
| 20260506213004 | 59 | 21 | 0.9 | 2.6 | 0.00 | 0.57 | 0.57 | 75 | 1010.4 |
| 20260506212004 | 58 | 25 | 1.7 | 2.6 | 0.00 | 0.57 | 0.57 | 76 | 1010.4 |
| 20260506211503 | 58 | 18 | 0.9 | 2.6 | 0.00 | 0.57 | 0.57 | 77 | 1010.4 |
| 20260506211003 | 58 | 11 | 0.9 | 2.6 | 0.00 | 0.57 | 0.57 | 77 | 1010.3 |
| 20260506210503 | 58 | 9 | 0.9 | 2.6 | 0.00 | 0.57 | 0.57 | 78 | 1010.3 |
| 20260506210004 | 58 | 11 | 0.9 | 2.6 | 0.00 | 0.57 | 0.57 | 78 | 1010.2 |
| 20260506205504 | 58 | 18 | 0.9 | 2.6 | 0.00 | 0.57 | 0.57 | 78 | 1010.2 |
| 20260506205003 | 58 | 10 | 1.7 | 4.3 | 0.00 | 0.58 | 0.57 | 78 | 1010.3 |
| 20260506204503 | 58 | 10 | 1.7 | 2.6 | 0.00 | 0.58 | 0.57 | 77 | 1010.2 |
| 20260506204003 | 58 | 24 | 0.9 | 4.3 | 0.00 | 0.59 | 0.57 | 77 | 1010.2 |
| 20260506203504 | 58 | 8 | 1.7 | 4.3 | 0.00 | 0.60 | 0.57 | 77 | 1010.2 |
| 20260506202503 | 58 | 353 | 1.7 | 4.3 | 0.00 | 0.62 | 0.57 | 77 | 1009.9 |
| 20260506201504 | 58 | 14 | 1.7 | 5.2 | 0.00 | 0.63 | 0.57 | 77 | 1009.9 |
| 20260506201004 | 58 | 1 | 1.7 | 5.2 | 0.00 | 0.68 | 0.57 | 78 | 1009.9 |
| 20260506195504 | 57 | 354 | 2.6 | 5.2 | 0.00 | 0.69 | 0.57 | 81 | 1010.0 |
| 20260506194503 | 57 | 4 | 3.5 | 10.4 | 0.00 | 0.69 | 0.57 | 82 | 1009.9 |
| 20260506194004 | 58 | 333 | 1.7 | 5.2 | 0.00 | 0.69 | 0.57 | 82 | 1009.9 |
| 20260506193004 | 58 | 338 | 1.7 | 4.3 | 0.00 | 0.69 | 0.57 | 80 | 1009.6 |
| 20260506192004 | 59 | 319 | 0.9 | 2.6 | 0.00 | 0.69 | 0.57 | 78 | 1009.5 |
| 20260506191504 | 59 | 344 | 0.9 | 2.6 | 0.00 | 0.69 | 0.57 | 77 | 1009.4 |
| 20260506191004 | 59 | 12 | 1.7 | 2.6 | 0.00 | 0.69 | 0.57 | 76 | 1009.3 |
| 20260506190004 | 59 | 13 | 0.9 | 2.6 | 0.00 | 0.69 | 0.57 | 76 | 1009.2 |
| 20260506185003 | 59 | 3 | 0.9 | 4.3 | 0.00 | 0.69 | 0.57 | 76 | 1009.0 |
| 20260506184504 | 59 | 4 | 0.9 | 2.6 | 0.00 | 0.69 | 0.57 | 76 | 1008.9 |
| 20260506183005 | 60 | 3 | 2.6 | 4.3 | 0.00 | 0.69 | 0.57 | 75 | 1008.7 |
| 20260506182504 | 60 | 18 | 1.7 | 2.6 | 0.00 | 0.69 | 0.57 | 75 | 1008.7 |
| 20260506181503 | 60 | 17 | 0.9 | 2.6 | 0.00 | 0.69 | 0.57 | 74 | 1008.5 |
| 20260506180503 | 60 | 36 | 2.6 | 7.8 | 0.00 | 0.69 | 0.57 | 74 | 1008.3 |
| 20260506174503 | 61 | 25 | 2.6 | 10.4 | 0.00 | 0.69 | 0.57 | 74 | 1008.0 |
| 20260506173004 | 61 | 358 | 4.3 | 12.2 | 0.00 | 0.69 | 0.57 | 73 | 1007.8 |
| 20260506171504 | 63 | 8 | 5.2 | 10.4 | 0.00 | 0.69 | 0.57 | 71 | 1007.7 |
| 20260506170504 | 64 | 359 | 6.1 | 13.9 | 0.00 | 0.69 | 0.57 | 67 | 1007.4 |
| 20260506165504 | 67 | 328 | 1.7 | 7.8 | 0.00 | 0.69 | 0.57 | 63 | 1006.9 |
| 20260506165003 | 70 | 9 | 5.2 | 11.3 | 0.00 | 0.69 | 0.57 | 55 | 1006.9 |
| 20260506163504 | 71 | 167 | 4.3 | 6.1 | 0.00 | 0.69 | 0.57 | 48 | 1006.2 |
| 20260506162503 | 71 | 185 | 4.3 | 10.4 | 0.00 | 0.69 | 0.57 | 48 | 1006.1 |
| 20260506162003 | 71 | 199 | 6.1 | 13.9 | 0.00 | 0.69 | 0.57 | 48 | 1006.0 |
| 20260506161504 | 72 | 187 | 6.1 | 14.8 | 0.00 | 0.69 | 0.57 | 49 | 1006.0 |
| 20260506160504 | 71 | 137 | 4.3 | 12.2 | 0.00 | 0.69 | 0.57 | 57 | 1005.9 |
| 20260506160003 | 71 | 146 | 7.8 | 13.9 | 0.00 | 0.69 | 0.57 | 70 | 1005.9 |
| 20260506155004 | 71 | 108 | 8.7 | 18.2 | 0.00 | 0.69 | 0.57 | 71 | 1006.0 |
| 20260506154003 | 71 | 117 | 3.5 | 13.0 | 0.00 | 0.69 | 0.57 | 72 | 1006.1 |
| 20260506153504 | 70 | 122 | 5.2 | 10.4 | 0.00 | 0.69 | 0.57 | 73 | 1006.1 |
| 20260506151003 | 69 | 94 | 7.8 | 15.6 | 0.00 | 0.69 | 0.57 | 75 | 1006.3 |
| 20260506150504 | 69 | 104 | 7.8 | 14.8 | 0.00 | 0.69 | 0.57 | 76 | 1006.3 |
| 20260506150004 | 69 | 108 | 5.2 | 10.4 | 0.00 | 0.69 | 0.57 | 76 | 1006.4 |
| 20260506144504 | 69 | 114 | 6.1 | 11.3 | 0.00 | 0.69 | 0.57 | 76 | 1006.8 |
| 20260506141504 | 68 | 112 | 4.3 | 13.9 | 0.00 | 0.69 | 0.57 | 77 | 1007.0 |
| 20260506141004 | 68 | 111 | 7.8 | 14.8 | 0.00 | 0.69 | 0.57 | 77 | 1007.1 |
| 20260506140003 | 68 | 101 | 4.3 | 13.0 | 0.00 | 0.69 | 0.57 | 77 | 1007.4 |
| 20260506134504 | 67 | 113 | 5.2 | 13.0 | 0.00 | 0.69 | 0.57 | 80 | 1007.5 |
| 20260506134003 | 66 | 112 | 4.3 | 13.0 | 0.00 | 0.69 | 0.57 | 81 | 1007.6 |
| 20260506133504 | 66 | 94 | 6.1 | 12.2 | 0.00 | 0.69 | 0.57 | 80 | 1007.7 |
| 20260506132504 | 66 | 112 | 6.1 | 10.4 | 0.00 | 0.69 | 0.57 | 80 | 1007.8 |
| 20260506132003 | 66 | 111 | 5.2 | 13.9 | 0.00 | 0.69 | 0.57 | 80 | 1007.9 |
| 20260506131504 | 67 | 96 | 4.3 | 13.9 | 0.00 | 0.70 | 0.57 | 80 | 1007.9 |
| 20260506130004 | 66 | 107 | 3.5 | 13.0 | 0.00 | 0.70 | 0.57 | 81 | 1008.0 |
| 20260506125004 | 66 | 92 | 7.8 | 12.2 | 0.00 | 0.70 | 0.57 | 80 | 1008.0 |
| 20260506124504 | 66 | 75 | 6.1 | 11.3 | 0.00 | 0.70 | 0.57 | 81 | 1008.0 |
| 20260506124004 | 65 | 73 | 5.2 | 10.4 | 0.00 | 0.70 | 0.57 | 81 | 1008.0 |
| 20260506123003 | 65 | 91 | 4.3 | 10.4 | 0.00 | 0.70 | 0.57 | 81 | 1008.0 |
| 20260506122503 | 65 | 96 | 5.2 | 12.2 | 0.00 | 0.70 | 0.57 | 81 | 1008.2 |
| 20260506122004 | 65 | 103 | 7.0 | 12.2 | 0.00 | 0.70 | 0.57 | 81 | 1008.2 |
| 20260506115504 | 65 | 96 | 3.5 | 12.2 | 0.00 | 0.70 | 0.57 | 84 | 1008.3 |
| 20260506115003 | 64 | 85 | 5.2 | 12.2 | 0.00 | 0.70 | 0.57 | 85 | 1008.4 |
| 20260506114504 | 64 | 106 | 4.3 | 8.7 | 0.00 | 0.70 | 0.57 | 85 | 1008.5 |
| 20260506113004 | 63 | 105 | 6.1 | 14.8 | 0.00 | 0.70 | 0.57 | 86 | 1008.6 |
| 20260506112504 | 63 | 95 | 7.8 | 13.0 | 0.00 | 0.70 | 0.57 | 87 | 1008.6 |
| 20260506111504 | 63 | 105 | 4.3 | 12.2 | 0.00 | 0.70 | 0.57 | 88 | 1008.5 |
| 20260506105504 | 63 | 95 | 6.1 | 12.2 | 0.00 | 0.70 | 0.57 | 88 | 1008.7 |
| 20260506105004 | 62 | 93 | 6.1 | 13.0 | 0.00 | 0.70 | 0.57 | 89 | 1008.7 |
| 20260506103504 | 61 | 91 | 5.2 | 11.3 | 0.02 | 0.70 | 0.57 | 90 | 1008.7 |
| 20260506102504 | 61 | 90 | 5.2 | 12.2 | 0.07 | 0.70 | 0.57 | 90 | 1008.8 |
| 20260506101003 | 61 | 79 | 6.1 | 14.8 | 0.08 | 0.70 | 0.57 | 91 | 1008.8 |
| 20260506100504 | 60 | 105 | 5.2 | 13.0 | 0.09 | 0.70 | 0.57 | 92 | 1008.8 |
| 20260506092004 | 58 | 85 | 5.2 | 11.3 | 0.18 | 0.63 | 0.50 | 92 | 1008.9 |
| 20260506091504 | 58 | 88 | 6.1 | 8.7 | 0.19 | 0.63 | 0.50 | 92 | 1008.9 |
| 20260506090504 | 58 | 74 | 1.7 | 4.3 | 0.20 | 0.61 | 0.48 | 92 | 1009.4 |
| 20260506085504 | 58 | 76 | 0.9 | 1.7 | 0.11 | 0.53 | 0.39 | 92 | 1009.6 |
| 20260506085004 | 58 | 76 | 0.0 | 4.3 | 0.09 | 0.53 | 0.37 | 92 | 1009.5 |
| 20260506084004 | 58 | 81 | 2.6 | 7.8 | 0.06 | 0.51 | 0.34 | 92 | 1008.9 |
| 20260506083504 | 58 | 84 | 4.3 | 11.3 | 0.05 | 0.50 | 0.33 | 92 | 1008.7 |
| 20260506083004 | 58 | 83 | 5.2 | 13.9 | 0.04 | 0.49 | 0.32 | 92 | 1008.8 |
| 20260506061004 | 57 | 99 | 1.7 | 7.8 | 0.00 | 0.52 | 0.26 | 93 | 1009.6 |
| 20260506060504 | 57 | 116 | 2.6 | 8.7 | 0.00 | 0.53 | 0.26 | 93 | 1009.6 |
| 20260506051004 | 56 | 102 | 1.7 | 5.2 | 0.10 | 0.53 | 0.26 | 93 | 1009.4 |
| 20260506050504 | 56 | 93 | 1.7 | 4.3 | 0.13 | 0.53 | 0.26 | 93 | 1009.5 |
| 20260506044504 | 56 | 135 | 0.9 | 2.6 | 0.20 | 0.52 | 0.25 | 93 | 1010.1 |
| 20260506043504 | 56 | 78 | 0.0 | 0.0 | 0.22 | 0.52 | 0.25 | 93 | 1010.0 |
| 20260506043004 | 56 | 78 | 0.9 | 1.7 | 0.22 | 0.51 | 0.24 | 93 | 1009.9 |
| 20260506042003 | 56 | 81 | 0.9 | 2.6 | 0.19 | 0.47 | 0.20 | 93 | 1009.1 |
| 20260506041504 | 56 | 93 | 1.7 | 2.6 | 0.18 | 0.45 | 0.18 | 93 | 1009.4 |
| 20260506040503 | 57 | 121 | 0.9 | 1.7 | 0.13 | 0.40 | 0.13 | 93 | 1010.2 |
| 20260506035004 | 57 | 115 | 2.6 | 6.1 | 0.06 | 0.33 | 0.06 | 92 | 1010.2 |
| 20260506034504 | 56 | 115 | 0.0 | 2.6 | 0.05 | 0.32 | 0.05 | 92 | 1010.1 |
| 20260506033005 | 56 | 104 | 0.9 | 2.6 | 0.02 | 0.29 | 0.02 | 92 | 1010.1 |
| 20260506032504 | 57 | 105 | 0.9 | 2.6 | 0.01 | 0.28 | 0.01 | 92 | 1010.1 |
| 20260506032004 | 57 | 106 | 1.7 | 2.6 | 0.01 | 0.28 | 0.01 | 92 | 1010.1 |
| 20260506031504 | 57 | 103 | 1.7 | 5.2 | 0.00 | 0.27 | 0.00 | 92 | 1010.2 |
| 20260506031004 | 57 | 90 | 0.9 | 5.2 | 0.00 | 0.27 | 0.00 | 92 | 1010.1 |
| 20260506030504 | 57 | 86 | 1.7 | 2.6 | 0.00 | 0.27 | 0.00 | 92 | 1010.2 |
| 20260506025503 | 57 | 101 | 0.0 | 0.9 | 0.00 | 0.27 | 0.00 | 92 | 1010.3 |
| 20260506024003 | 57 | 107 | 1.7 | 2.6 | 0.00 | 0.27 | 0.00 | 92 | 1010.4 |
| 20260506023503 | 57 | 106 | 1.7 | 2.6 | 0.00 | 0.27 | 0.00 | 92 | 1010.5 |
| 20260506023003 | 57 | 109 | 0.9 | 2.6 | 0.00 | 0.27 | 0.00 | 92 | 1010.7 |
| 20260506021503 | 57 | 107 | 0.9 | 4.3 | 0.00 | 0.27 | 0.00 | 92 | 1010.8 |
| 20260506021003 | 57 | 113 | 1.7 | 2.6 | 0.00 | 0.27 | 0.00 | 92 | 1010.8 |
| 20260506020003 | 57 | 113 | 1.7 | 4.3 | 0.00 | 0.27 | 0.00 | 91 | 1010.8 |
| 20260506015503 | 57 | 111 | 1.7 | 6.1 | 0.00 | 0.27 | 0.00 | 91 | 1010.9 |
| 20260506013003 | 57 | 101 | 1.7 | 4.3 | 0.00 | 0.27 | 0.00 | 91 | 1010.9 |
| 20260506012503 | 57 | 98 | 2.6 | 4.3 | 0.00 | 0.27 | 0.00 | 91 | 1010.9 |
| 20260506012004 | 57 | 105 | 1.7 | 2.6 | 0.00 | 0.27 | 0.00 | 91 | 1011.0 |
| 20260506011003 | 57 | 87 | 1.7 | 2.6 | 0.00 | 0.27 | 0.00 | 91 | 1011.1 |
| 20260506010503 | 57 | 97 | 1.7 | 4.3 | 0.00 | 0.27 | 0.00 | 91 | 1011.0 |
| 20260506010003 | 57 | 73 | 0.9 | 4.3 | 0.00 | 0.27 | 0.00 | 91 | 1011.0 |
| 20260506003504 | 57 | 89 | 0.9 | 2.6 | 0.00 | 0.27 | 0.00 | 91 | 1011.2 |
| 20260506003004 | 57 | 99 | 1.7 | 2.6 | 0.00 | 0.27 | 0.00 | 91 | 1011.3 |
| 20260506002503 | 57 | 108 | 0.9 | 2.6 | 0.00 | 0.27 | 0.00 | 91 | 1011.5 |
| 20260506002003 | 58 | 104 | 0.9 | 2.6 | 0.00 | 0.27 | 0.00 | 91 | 1011.4 |
| 20260506001004 | 58 | 119 | 0.9 | 1.7 | 0.00 | 0.27 | 0.00 | 91 | 1011.6 |
| 20260506000503 | 58 | 120 | 0.0 | 1.7 | 0.00 | 0.27 | 0.00 | 91 | 1011.7 |
| 20260506000004 | 58 | 123 | 0.9 | 1.7 | 0.00 | 0.27 | 0.00 | 91 | 1011.8 |